TJS-20

Last updated on Tue Sep 22 2026 00:03:16 GMT+0000 (Coordinated Universal Time)

1 66142U 25238A 26264.61873000 .00000018 00000+0 00000+0 0 9991 2 66142 5.2626 299.2194 0003276 239.1436 107.2510 1.00271522 3294
UTC large
Height (km)
Speed (km/s)
/
Latitude / Longitude
Inclination (degrees)
Orbital Period (minutes)
Azimuth
Elevation
Range (km)
Doppler Factor

Next 0 passes for location: London (51.5072 / 0.1276)

No passes found over London.
TJS-20